Weather History for Al Udeid, Qatar

Change the Weather History Date:

Monday, March 26, 2012

  Actual Average Record
Temperature  
Mean Temperature 66 °F -  
Max Temperature 73 °F - - ()
Min Temperature 59 °F - - ()
Cooling Degree Days 1    
Growing Degree Days 16 (Base 50)    
Moisture  
Dew Point 59 °F    
Average Humidity 80    
Maximum Humidity 90    
Minimum Humidity 56    
Precipitation  
Precipitation 0.11 in - - ()
Sea Level Pressure  
Sea Level Pressure 29.99 in    
Wind  
Wind Speed 14 mph ()    
Max Wind Speed 24 mph    
Max Gust Speed 32 mph    
Visibility 5.7 miles    
Events Rain    
T = Trace of Precipitation, MM = Missing Value Source: Averaged Metar Reports

Daily Weather History Graph

Daily Weather History Graph

Search for Another Location

Airport:

Trip Planner

Search our weather history database for the weather conditions in past years. The results will help you decide how hot, cold, wet, or windy it might be!

Date:

Astronomy

Mar. 26, 2012 Rise Set
Actual Time 5:32 AM AST 5:48 PM AST
Civil Twilight 5:09 AM AST 6:11 PM AST
Nautical Twilight 4:42 AM AST 6:38 PM AST
Astronomical Twilight 4:15 AM AST 7:05 PM AST
Moon 7:31 AM AST 9:10 PM AST
Length of Visible Light 13h 02m
Length of Day
12h 16m
Waxing Crescent, 12% of the Moon is Illuminated
Mar 26
Waxing Crescent
Mar 30
First Quarter
Apr 6
Full
Apr 13
Last Quarter
Apr 21
New

Hourly Weather History & Observations

Time (AST) Temp. Dew Point Humidity Pressure Visibility Wind Dir Wind Speed Gust Speed Precip Events Conditions
2:38 AM 66.2 °F 50.0 °F 56% 29.94 in 5.6 mi North 20.7 mph - N/A Rain Light Rain Showers
2:54 AM 66.2 °F 50.0 °F 56% 29.97 in 6.2 mi North 17.3 mph - N/A   Overcast
2:55 AM 65.7 °F 50.7 °F 58% 29.97 in 6.2 mi North 17.3 mph - 0.00 in   Overcast
2:58 AM 66.2 °F 50.0 °F 56% 29.99 in 5.6 mi NNW 17.3 mph - N/A Rain Light Rain Showers
3:55 AM 61.7 °F 57.0 °F 85% 30.04 in 5.6 mi NW 17.3 mph - 0.00 in Rain Light Rain Showers
4:55 AM 60.4 °F 57.0 °F 88% 30.06 in 5.6 mi NNW 24.2 mph 32.2 mph 0.01 in Rain Light Rain Showers
5:55 AM 59.5 °F 56.5 °F 90% 29.99 in 6.2 mi NNE 19.6 mph - 0.04 in Rain Light Rain Showers
6:27 AM 60.8 °F 57.2 °F 88% 29.99 in 6.2 mi NNE 18.4 mph - N/A   Overcast
6:39 AM 60.8 °F 55.4 °F 82% 29.99 in 5.6 mi NNE 17.3 mph - N/A Rain Light Rain Showers
6:55 AM 60.8 °F 57.0 °F 87% 29.99 in 5.6 mi NE 17.3 mph - 0.00 in Rain Light Rain Showers
7:02 AM 60.8 °F 57.2 °F 88% 29.99 in 6.2 mi NE 18.4 mph - N/A   Overcast
7:13 AM 60.8 °F 57.2 °F 88% 29.98 in 5.6 mi NNE 15.0 mph - N/A Rain Light Rain Showers
7:55 AM 62.6 °F 59.4 °F 89% 30.02 in 5.6 mi North 11.5 mph - 0.01 in Rain Light Rain Showers
8:40 AM 64.4 °F 60.8 °F 88% 30.05 in 6.2 mi NNE 12.7 mph - N/A   Overcast
8:55 AM 64.6 °F 61.5 °F 90% 30.05 in 6.2 mi NNE 13.8 mph - 0.03 in   Clear
9:55 AM 67.8 °F 62.2 °F 82% 30.05 in 5.6 mi ENE 11.5 mph - N/A   Scattered Clouds
10:55 AM 70.3 °F 63.0 °F 77% 30.00 in 5.6 mi NE 15.0 mph - N/A   Haze
11:55 AM 71.6 °F 62.6 °F 73% 30.00 in 5.6 mi NNE 12.7 mph - N/A   Haze
12:49 PM 71.6 °F 62.6 °F 73% 29.95 in 5.6 mi East 13.8 mph - N/A Rain Light Rain Showers
12:55 PM 70.5 °F 63.5 °F 78% 29.94 in 5.6 mi East 17.3 mph - 0.00 in Rain Light Rain Showers
1:13 PM 69.8 °F 62.6 °F 78% 29.97 in 6.2 mi SE 11.5 mph - N/A   Partly Cloudy
1:55 PM 71.6 °F 64.0 °F 77% 29.94 in 6.2 mi East 11.5 mph - 0.02 in   Scattered Clouds
2:55 PM 72.5 °F 62.2 °F 70% 29.96 in 6.2 mi ENE 5.8 mph - N/A   Partly Cloudy
3:55 PM 73.0 °F 62.1 °F 68% 29.97 in 6.2 mi East 4.6 mph - N/A   Clear
4:55 PM 72.5 °F 63.1 °F 72% 29.96 in 6.2 mi East 10.4 mph - N/A   Clear
5:55 PM 69.3 °F 62.8 °F 80% 29.97 in 6.2 mi East 11.5 mph - N/A   Clear
6:55 PM 67.3 °F 62.8 °F 85% 29.96 in 5.0 mi ENE 9.2 mph - N/A   Clear
7:55 PM 66.6 °F 62.6 °F 87% 29.98 in 5.0 mi East 8.1 mph - N/A   Clear
8:55 PM 66.0 °F 62.6 °F 89% 29.99 in 5.0 mi East 4.6 mph - N/A   Clear
9:55 PM 65.5 °F 62.2 °F 89% 29.98 in 5.0 mi ENE 4.6 mph - N/A   Clear
10:55 PM 65.7 °F 62.1 °F 88% 29.96 in 5.0 mi NE 6.9 mph - N/A   Clear
11:55 PM 65.5 °F 62.1 °F 89% 29.95 in 5.6 mi NE 4.6 mph - N/A   Partly Cloudy